Tracking 19709 objects as of 18-Jun-2019
HD Live streaming from Space Station
objects crossing your sky now

DMSP 5D-2 F11 DEB

Track DMSP 5D-2 F11 DEB now!
10-day predictions


NORAD ID: 28333
Int'l Code: 1991-082AW
Perigee: 767.7 km
Apogee: 786.6 km
Inclination: 98.7 °
Period: 100.2 minutes
Semi major axis: 7148 km
RCS: 0.0092 m2 (small)
Launch date: November 28, 1991
Source: United States (US)
Launch site: AIR FORCE WESTERN TEST RANGE (AFWTR)

Note: This is SATELLITE DEBRIS
aabbcc
Your satellite tracking list
Your tracking list is empty




NASA's NSSDC Master Catalog

Two Line Element Set (TLE):
1 28333U 91082AW  19167.92503766 +.00000718 +00000-0 +25950-3 0  9991
2 28333 098.6553 205.9339 0013212 096.7499 026.2722 14.36511988786155
Source of the keplerian elements: AFSPC